Wind_Speed
8 8 8 11 6 6 15 19 6 4 7 5 4 3 11 9 8 4 17 13 23 22 26 28 26 25 23 20 18 17 14 12 9 7 5 5 5 4 3 3 3 3 3 3 2 3 5 5 4
8 9 11 6 7 12 12 11 9 8 13 6 4 7 5 3 12 19 15 9 23 21 23 29 28 27 24 22 20 18 16 13 11 8 6 5 4 4 4 4 4 5 5 5 5 5 6 7 7
12 14 6 4 10 14 11 4 17 8 2 2 5 6 3 5 11 8 11 6 22 17 19 27 30 28 27 24 21 20 17 15 12 9 7 6 5 5 5 5 6 7 8 9 8 8 9 9 10
8 7 7 7 18 20 22 12 2 13 16 5 5 5 5 10 6 8 6 5 19 18 18 24 29 30 29 25 23 21 19 16 14 11 8 7 6 7 8 8 8 9 10 11 12 12 11 12 12
15 8 10 14 18 20 19 14 10 3 11 10 4 3 11 11 13 9 7 3 7 21 22 22 25 30 29 27 24 22 20 17 15 12 10 9 7 8 9 10 11 11 12 13 13 14 15 15 14
7 8 12 14 19 21 18 12 5 12 13 15 6 11 2 13 16 9 6 7 7 9 23 21 20 25 30 28 26 23 21 18 16 14 11 9 8 8 9 11 14 13 13 12 12 12 12 13 14
15 11 16 18 19 21 16 2 2 10 12 10 10 5 4 10 11 6 2 11 12 12 23 25 22 22 26 28 28 26 23 20 19 15 13 11 10 9 11 13 14 15 15 14 15 15 15 15 14
13 12 22 19 18 21 20 2 1 13 12 10 5 4 7 1 11 10 3 13 11 21 21 27 24 23 25 30 30 28 25 22 20 17 15 13 13 13 13 15 18 17 14 14 13 14 15 15 16
18 14 16 22 22 20 20 18 11 11 9 14 12 11 14 20 20 16 6 15 17 16 20 30 27 23 22 24 26 30 28 25 22 19 18 16 15 11 12 19 16 13 14 16 17 15 15 15 15
18 16 25 21 20 21 21 21 19 14 15 14 12 21 21 16 16 16 14 14 17 20 19 29 34 31 26 24 25 26 29 28 26 22 19 16 14 13 13 6 12 17 18 16 15 14 13 14 13
23 24 24 22 24 23 24 23 22 22 21 17 21 20 19 13 11 14 19 21 19 19 23 14 33 33 32 28 27 30 27 25 25 23 21 19 16 15 15 17 20 20 17 14 12 13 12 11 13
27 29 27 28 27 26 26 26 26 24 23 20 18 24 16 14 9 13 19 18 20 19 17 20 33 35 34 30 29 29 28 28 26 27 25 23 19 17 16 14 12 9 13 13 8 10 10 12 9
30 29 29 28 28 28 28 28 28 28 27 26 25 24 21 19 12 19 24 20 17 14 18 21 33 37 36 32 29 30 28 29 27 26 28 24 21 17 16 16 12 11 6 9 13 15 14 11 14
28 30 31 31 30 29 30 29 28 27 25 26 25 22 22 22 20 17 23 17 11 13 16 15 21 33 38 38 31 30 29 26 27 24 22 24 21 17 14 14 15 15 17 17 12 11 12 13 12
31 34 32 32 30 30 28 32 31 26 25 24 24 23 21 20 23 17 24 16 8 13 16 14 12 27 36 35 39 19 24 22 24 18 19 20 21 18 13 14 11 13 15 18 16 15 13 15 15
32 31 29 29 29 33 26 31 30 26 26 23 24 22 20 21 18 18 15 16 16 17 13 18 17 29 33 27 28 26 21 25 17 20 17 18 16 15 13 14 15 15 14 14 17 17 16 14 15
29 24 34 34 30 31 29 30 31 25 26 24 20 19 21 20 25 11 14 19 29 21 18 17 20 26 31 26 22 26 20 19 21 17 18 19 18 16 16 16 16 14 15 16 16 15 16 14 16
23 30 34 28 26 27 30 29 29 24 25 25 22 16 17 21 23 14 14 21 22 21 16 20 19 21 31 26 22 21 19 17 19 16 15 15 16 15 15 15 17 15 14 14 16 16 15 14 15
28 32 32 29 28 28 25 27 30 22 21 22 19 15 18 19 15 13 15 22 21 8 6 9 15 19 28 23 22 19 18 17 16 17 16 14 12 11 10 16 14 16 16 18 16 15 15 15 10
33 31 31 28 26 24 23 26 26 22 21 19 20 17 17 17 16 14 13 18 11 10 7 9 16 22 23 21 21 20 18 18 19 17 16 16 12 12 14 12 11 12 14 18 16 15 14 14 12
32 32 27 30 25 26 23 26 25 24 24 22 18 17 17 18 18 19 14 7 14 13 12 12 14 18 21 18 20 16 20 16 19 13 9 14 13 11 11 11 11 14 14 17 13 13 14 11 11
28 28 28 27 23 18 21 20 24 18 21 19 18 20 17 19 20 20 16 13 16 15 14 14 16 21 20 20 19 16 14 8 11 16 11 8 8 5 4 7 10 10 8 8 9 10 15 13 10
34 24 26 27 24 21 25 15 23 16 17 16 15 16 15 15 13 13 9 16 19 20 18 18 19 19 19 21 18 16 14 15 7 4 4 2 1 2 5 8 7 7 8 8 9 9 11 13 14
26 27 27 25 18 17 26 20 25 18 17 18 19 17 14 16 15 11 17 22 20 20 20 20 20 18 20 14 17 17 12 4 6 6 5 1 2 5 6 7 7 5 6 6 7 8 9 11 13
31 21 16 17 16 22 18 20 22 19 19 21 17 14 11 8 12 19 18 15 17 20 21 21 20 20 18 14 14 9 9 4 3 3 3 3 3 4 5 4 3 2 4 5 5 6 7 9 9
30 25 15 24 15 20 23 22 19 19 22 15 8 8 6 9 14 16 14 14 18 21 22 22 21 20 18 16 14 11 10 8 5 3 4 5 3 4 5 3 2 3 4 5 5 5 5 5 5
26 27 28 22 21 16 16 20 29 23 18 13 7 10 8 10 13 14 15 14 20 22 22 23 21 20 18 16 14 12 8 9 7 4 3 6 7 8 7 3 1 1 2 3 3 5 5 1 2
28 22 25 17 23 21 20 19 9 14 18 12 9 11 14 14 14 14 14 15 21 22 22 22 21 19 18 17 14 13 9 5 6 3 6 7 5 9 8 4 2 1 1 1 2 3 3 3 4
24 23 26 18 19 16 14 13 7 9 7 11 12 14 17 15 15 15 15 18 21 22 22 21 20 18 18 17 13 16 11 8 6 5 6 9 5 6 5 4 3 3 3 2 4 4 5 1 3
29 25 23 15 24 17 14 15 7 8 8 12 15 18 17 16 16 16 16 15 20 20 21 19 19 18 17 15 17 15 12 8 7 8 8 9 9 7 4 6 5 5 5 1 2 2 2 5 2
Wind_Direction
240 209 210 238 253 230 257 250 250 115 239 106 39 331 354 336 10 50 140 125 138 165 169 171 177 177 177 180 177 176 178 172 173 172 177 184 182 183 201 212 206 201 204 217 232 263 282 276 272
200 212 237 275 243 240 245 273 283 333 64 58 279 238 302 14 56 84 94 113 142 168 175 175 181 181 182 184 183 182 183 180 184 186 190 199 202 206 219 239 238 233 239 249 259 261 260 264 264
211 235 259 219 234 252 276 47 296 220 195 295 309 99 239 86 64 82 79 128 143 158 183 181 183 186 187 187 189 188 187 187 192 196 203 215 229 244 248 257 255 251 253 260 262 266 268 263 255
204 230 252 247 263 240 253 179 45 7 244 54 296 331 64 74 100 89 80 164 148 160 175 192 192 190 190 191 193 194 193 192 198 202 213 221 237 253 262 262 259 254 261 262 267 264 265 263 264
245 254 245 253 252 262 280 264 322 262 291 253 163 17 92 104 107 108 115 183 201 175 178 197 206 198 195 197 197 199 200 198 202 206 213 224 243 261 265 264 258 259 266 269 268 270 271 267 259
228 229 257 250 255 258 265 284 358 304 308 305 269 205 176 153 100 68 98 172 227 227 174 203 209 210 205 202 203 204 205 205 208 210 217 229 246 260 261 264 265 259 268 269 270 268 269 267 263
242 244 243 256 265 273 274 75 344 305 291 309 18 22 33 103 127 145 234 241 212 217 179 187 190 208 221 215 209 209 209 210 215 214 219 235 248 263 264 268 264 262 264 266 269 269 265 258 258
238 261 265 265 271 272 285 11 207 265 273 349 29 266 287 93 297 311 313 293 255 202 190 181 188 197 211 220 218 214 214 216 219 220 221 232 244 258 276 277 268 268 261 260 264 271 266 258 249
233 248 251 253 259 274 281 287 292 313 309 291 300 305 311 301 288 278 313 282 279 292 214 175 185 194 201 208 219 217 215 219 222 223 225 229 239 251 267 264 255 249 251 265 271 267 263 259 255
224 242 240 248 261 273 291 286 286 271 272 253 257 288 268 287 314 319 308 290 287 281 285 191 181 186 190 191 209 222 216 215 216 219 224 229 231 233 241 235 236 259 269 276 269 264 261 253 255
229 238 249 255 262 266 269 278 285 287 277 281 300 286 289 304 309 295 285 280 281 297 299 254 187 186 185 184 198 212 207 206 214 215 215 218 223 230 237 244 250 248 248 252 260 249 249 240 249
239 239 245 253 259 269 271 276 276 283 290 288 255 272 275 283 281 292 280 280 278 294 294 279 190 185 186 187 192 196 197 201 204 211 210 210 215 227 235 244 254 247 230 238 242 249 250 238 254
237 242 245 250 254 255 262 264 272 278 284 287 290 285 283 289 274 268 266 269 286 294 293 278 186 189 188 188 194 197 197 200 202 207 205 202 217 219 227 232 241 241 272 231 251 259 253 252 271
242 245 249 258 259 260 266 272 272 268 275 278 278 271 272 270 279 267 268 263 271 284 272 266 190 198 194 193 193 207 202 200 201 198 194 207 210 220 226 239 245 240 250 256 268 255 250 252 261
252 256 262 255 259 266 273 270 265 282 282 280 281 276 272 271 265 255 261 264 283 285 258 242 205 208 195 193 195 201 203 199 196 191 201 209 208 215 222 239 251 244 247 246 253 256 248 256 249
254 257 260 253 254 255 258 264 266 268 270 266 273 286 278 274 254 247 261 300 295 274 246 232 214 197 194 188 191 202 205 202 195 196 208 202 203 213 228 240 248 254 242 254 250 249 250 248 253
245 248 248 249 248 261 255 260 262 251 256 257 250 252 268 274 275 259 266 275 277 262 227 218 208 186 186 182 185 198 203 198 203 200 202 206 213 221 231 239 252 261 262 255 242 241 246 251 251
222 236 242 257 251 251 248 251 262 260 263 265 259 252 257 271 270 227 250 276 278 261 222 218 203 185 178 174 177 193 199 193 203 214 207 211 205 221 239 242 254 255 258 252 240 236 241 246 250
236 239 248 254 253 247 256 260 265 276 275 259 247 254 268 263 284 241 249 270 262 166 183 194 180 173 162 167 174 185 193 186 214 209 209 212 217 234 253 263 256 263 257 249 240 244 245 250 241
244 254 253 261 261 258 265 261 264 256 255 254 266 245 251 258 275 282 236 260 143 149 157 155 162 163 167 167 172 186 189 189 210 211 213 212 223 240 262 253 258 257 259 250 242 231 239 236 232
234 236 247 258 268 270 273 271 267 266 271 272 267 275 273 276 272 273 273 176 141 140 151 164 169 171 165 169 172 185 189 195 198 202 180 205 217 239 257 269 275 266 263 260 257 234 234 231 239
240 234 243 248 253 259 258 270 253 258 264 259 257 255 249 243 244 244 241 131 140 139 149 163 165 158 164 163 178 171 171 189 193 212 194 164 192 229 286 269 269 268 259 256 246 235 231 229 231
244 243 245 244 250 258 253 260 266 275 272 276 269 259 253 253 253 257 221 133 140 138 144 152 151 157 165 168 162 169 186 198 164 174 151 226 164 244 261 264 262 254 242 245 243 240 236 229 232
238 243 248 255 254 246 242 244 267 260 271 277 269 265 257 235 241 235 117 130 132 138 141 147 153 164 156 163 165 174 210 95 138 161 143 176 214 243 243 246 243 236 242 239 244 235 230 230 230
240 229 234 236 235 242 243 238 256 269 268 269 276 265 257 245 222 114 126 133 137 137 143 150 158 142 159 164 156 170 133 141 148 171 193 225 206 218 232 223 206 227 240 243 242 223 222 233 241
224 233 220 219 216 245 248 251 256 253 254 248 285 232 225 129 107 121 131 133 138 141 149 154 152 155 164 158 162 153 154 177 176 165 78 139 175 165 157 168 228 239 239 241 225 221 238 243 266
230 226 236 244 234 251 253 235 239 243 246 239 199 199 138 123 121 130 130 139 139 146 156 150 156 161 163 161 162 159 160 138 118 107 140 131 146 140 147 136 206 279 255 228 233 226 216 190 8
243 219 226 223 234 239 235 250 274 200 225 212 206 164 134 124 135 138 142 141 143 150 146 155 158 159 160 161 164 161 155 130 134 133 125 136 153 137 128 148 155 190 71 152 122 167 136 118 90
230 235 217 237 227 238 247 269 199 172 143 148 170 161 137 141 145 141 145 142 146 148 152 153 159 162 161 168 169 152 147 160 157 161 143 139 150 123 162 153 138 137 97 65 90 143 167 177 72
232 224 230 218 219 236 246 248 89 101 138 164 165 144 135 145 144 150 144 149 149 154 152 162 159 161 168 167 160 153 152 148 155 158 145 144 164 166 170 165 160 119 88 72 131 166 178 192 254
Height
774 775 775 774 786 771 770 747 712 725 719 705 709 719 725 719 731 756 727 731 735 739 743 748 752 756 760 765 768 770 774 776 779 781 784 786 787 789 791 792 792 793 795 796 796 796 798 797 797
774 777 776 766 784 780 758 724 725 714 708 708 710 711 718 728 712 721 729 733 735 738 742 746 750 755 759 763 766 769 772 775 778 781 783 786 787 788 789 792 792 792 794 794 795 795 797 797 797
775 775 773 772 772 775 757 733 737 718 709 712 715 706 713 723 716 724 732 735 736 740 743 745 748 752 756 760 764 767 770 773 777 779 781 784 786 787 788 790 791 791 792 793 793 793 795 796 796
775 772 767 777 770 740 732 730 719 727 707 707 712 724 710 713 717 725 731 734 736 741 744 746 747 750 754 758 762 766 768 771 774 777 780 782 783 785 786 788 789 790 790 790 791 791 792 793 794
773 762 774 769 757 737 719 710 705 719 722 709 708 724 725 719 721 726 730 733 735 735 740 743 747 749 753 756 759 764 767 769 772 774 777 780 781 783 784 786 786 787 787 788 788 789 789 790 791
773 762 780 773 753 731 715 702 709 717 712 709 710 717 720 715 722 727 729 733 734 735 736 740 747 751 752 754 758 761 764 767 770 772 775 777 779 780 782 783 784 784 785 785 785 786 786 788 787
771 767 770 758 748 733 715 699 716 718 717 715 707 724 717 716 721 724 728 729 729 730 730 734 741 749 754 754 755 758 761 764 767 769 772 774 777 778 779 780 781 781 781 782 782 782 783 784 785
764 765 768 753 750 741 710 707 711 719 718 704 709 730 729 714 716 719 720 723 722 722 724 727 733 739 746 752 753 755 758 761 764 766 768 770 773 774 775 776 777 777 778 778 778 778 779 779 781
757 776 772 758 749 736 712 715 704 703 712 712 710 715 713 713 713 713 717 720 719 720 719 718 726 730 737 745 750 752 753 757 760 763 765 766 769 771 772 772 773 774 775 775 774 774 775 776 776
760 766 756 738 730 728 717 715 711 715 718 718 717 710 707 708 710 712 714 714 715 715 715 714 716 721 729 738 746 749 750 751 754 758 760 762 765 766 768 768 769 770 770 771 771 771 771 773 773
749 752 742 732 724 718 719 715 709 715 721 712 715 709 703 705 709 713 712 711 710 710 710 709 711 716 721 731 738 743 746 747 750 752 756 758 761 762 763 764 765 764 766 767 767 768 768 769 770
749 734 734 729 722 719 719 710 712 709 708 700 701 702 700 701 704 710 709 706 706 704 705 706 704 710 716 723 730 736 739 742 744 747 750 754 756 758 760 761 762 761 762 763 764 765 766 767 768
732 729 723 716 714 712 709 712 711 707 700 696 694 696 696 697 698 702 702 700 699 700 703 703 701 705 710 716 723 730 734 737 740 742 745 749 752 754 756 758 758 759 760 760 761 762 763 764 765
721 722 716 710 707 704 709 705 703 699 695 693 691 691 691 692 693 694 695 693 693 695 698 700 699 701 705 710 717 724 729 732 736 739 741 745 748 750 752 754 754 754 757 758 758 759 760 761 762
719 724 712 704 706 704 705 708 703 693 691 690 690 687 685 685 685 685 686 687 688 690 692 694 695 698 701 706 712 720 726 729 732 736 740 742 745 747 748 751 751 751 752 754 755 756 758 758 758
723 723 723 702 703 692 709 719 694 688 689 688 687 684 680 676 676 674 678 681 683 685 686 688 691 692 699 704 710 717 723 726 730 733 737 741 742 744 746 748 749 748 748 750 751 753 753 754 754
721 725 718 703 694 697 701 708 680 677 680 680 679 680 678 674 671 670 674 677 679 678 679 682 686 689 694 701 708 715 721 724 728 731 735 737 740 742 743 745 745 745 745 747 748 749 749 750 751
721 723 703 708 695 690 694 693 674 671 673 673 669 668 669 670 666 662 667 671 671 671 674 676 681 685 691 698 705 713 719 722 727 730 733 735 736 739 740 741 741 741 742 743 744 745 746 747 748
705 702 704 690 682 689 690 688 673 668 666 662 660 663 665 664 657 656 659 663 665 666 671 675 680 684 689 697 703 711 716 721 725 728 730 732 734 736 737 738 738 738 738 738 740 741 743 744 745
706 705 697 685 678 682 681 679 665 660 659 654 654 655 657 656 655 653 652 656 661 665 670 674 678 683 689 695 701 709 714 719 723 725 727 729 731 733 734 733 734 735 735 734 734 738 739 739 740
695 696 698 696 688 677 680 680 667 654 649 646 645 647 648 651 652 650 649 651 660 664 669 675 680 684 690 695 702 708 713 716 719 722 724 725 727 729 730 730 731 732 732 730 731 734 736 737 737
692 681 687 691 698 704 682 697 664 657 653 646 644 641 639 641 640 640 642 650 658 664 671 677 682 686 691 695 702 706 710 714 717 719 721 723 726 727 727 728 729 729 729 729 730 732 732 734 735
676 681 680 682 688 692 687 694 650 654 656 649 640 633 631 630 631 632 634 647 656 664 671 679 684 688 692 697 701 706 711 713 715 717 719 721 723 725 726 726 727 727 728 728 729 729 730 731 732
673 679 680 677 679 698 671 686 654 660 652 640 629 622 619 619 620 622 634 648 659 665 673 681 686 689 693 699 702 707 710 711 713 716 718 720 722 723 724 724 725 726 726 727 727 728 728 729 730
672 680 701 709 698 683 663 674 652 641 634 627 623 617 613 613 612 628 640 650 659 666 676 683 686 691 696 700 703 707 709 712 714 716 717 719 721 722 722 723 725 725 726 726 727 728 728 729 729
670 669 678 701 690 677 659 669 646 622 612 609 611 608 609 615 623 635 643 651 659 669 677 682 687 693 698 701 705 708 711 713 714 716 717 719 720 721 722 723 724 724 725 725 726 727 727 727 727
658 672 648 668 655 666 643 632 617 612 610 608 610 610 615 619 627 636 645 654 662 671 677 682 689 694 698 701 705 708 710 712 714 716 717 718 719 720 722 724 725 724 724 724 725 725 726 727 726
650 641 671 655 684 678 651 633 621 612 610 606 610 611 618 623 631 639 648 656 664 672 678 684 689 694 697 701 704 707 709 712 714 716 718 718 719 721 723 724 724 724 725 725 725 726 726 727 726
651 647 644 646 649 665 669 641 590 598 598 606 605 608 617 626 634 642 649 658 666 672 679 684 689 693 697 701 703 705 709 712 714 716 717 719 720 721 723 724 724 725 725 726 725 726 725 725 728
636 640 640 649 659 645 645 634 587 590 592 597 599 604 614 624 633 641 650 659 666 672 679 684 689 693 696 699 701 705 708 711 715 716 718 720 721 722 723 724 724 725 726 726 726 726 725 726 727